This is the latest recevied weather packets stored in our database for station/object DJ3AN. If no packets are shown the sender has not sent any weather packets the latest 10 day(s).
| Time | Temp. | Humidity | Pressure | Rain* | Wind** | Luminosity | Snow |
|---|---|---|---|---|---|---|---|
| 1777764606 | 15.56° C | 91% | 1013.3 hPa | 0.76 mm | - | - | - |
| 1777764306 | 15.56° C | 91% | 1013.4 hPa | 1.02 mm | - | - | - |
| 1777764006 | 15.56° C | 91% | 1013.5 hPa | 2.03 mm | - | - | - |
| 1777763706 | 15.56° C | 90% | 1013.7 hPa | 3.05 mm | - | - | - |
| 1777763406 | 15.56° C | 90% | 1013.8 hPa | 3.05 mm | - | - | - |
| 1777763106 | 15.56° C | 90% | 1014 hPa | 3.05 mm | - | - | - |
| 1777762806 | 15.56° C | 90% | 1014.1 hPa | 2.79 mm | - | - | - |
| 1777762506 | 15.56° C | 89% | 1014.4 hPa | 2.79 mm | - | - | - |
| 1777762207 | 15.56° C | 89% | 1014.5 hPa | 2.79 mm | - | - | - |
| 1777761906 | 15.56° C | 89% | 1014.6 hPa | 2.79 mm | - | - | - |
| 1777761606 | 15.56° C | 89% | 1014.7 hPa | 2.79 mm | - | - | - |
| 1777761306 | 15.56° C | 89% | 1014.9 hPa | 2.79 mm | - | - | - |
| 1777761006 | 15.56° C | 89% | 1015 hPa | 2.54 mm | - | - | - |
| 1777760706 | 15.56° C | 88% | 1015.1 hPa | 2.29 mm | - | - | - |
| 1777760406 | 15.56° C | 88% | 1015.4 hPa | 1.02 mm | - | - | - |
| 1777760106 | 15.56° C | 86% | 1015.7 hPa | 0 mm | - | - | - |
| 1777759806 | 15.56° C | 85% | 1016 hPa | 0 mm | - | - | - |
| 1777759505 | 15.56° C | 82% | 1015.1 hPa | 0 mm | - | - | - |
| 1777759206 | 16.11° C | 82% | 1014.5 hPa | 0 mm | - | - | - |
| 1777758906 | 16.11° C | 82% | 1014.4 hPa | 0 mm | - | - | - |
| 1777758607 | 16.11° C | 82% | 1014 hPa | 0 mm | - | - | - |
| 1777758306 | 16.11° C | 82% | 1013.7 hPa | 0 mm | - | - | - |
| 1777758006 | 16.11° C | 82% | 1013.7 hPa | 0 mm | - | - | - |
| 1777757706 | 16.11° C | 82% | 1013.8 hPa | 0 mm | - | - | - |
| 1777757406 | 16.11° C | 83% | 1014 hPa | 0 mm | - | - | - |
* Rain latest hour (hover to see other rain measurements)
** Current wind speed in m/s (hover to see current wind gust speed)